Location: Olsztyn
(53.7767°N, 20.4765°E)
Time: 07:11:33
(UTC+01:00)

Transit 4A - Pass Details

Date: 08 October 2022
Orbit: 871 x 972 km, 66.8° (Epoch: 06 December)

Event Time Altitude Azimuth Distance (km) Brightness Sun altitude
Exits shadow 04:44:35 - 318° (NW) 3,328 10.6 -19.5°
Reaches altitude 10° 04:46:41 10° 322° (NW) 2,561 10.0 -19.2°
Maximum altitude 04:52:28 54° 40° (NE) 1,063 8.5 -18.4°
Drops below altitude 10° 04:58:10 10° 117° (ESE) 2,520 10.9 -17.5°
Sets 05:00:41 0° 122° (ESE) 3,455 11.6 -17.2°
